This is the latest recevied weather packets stored in our database for station/object KB7STN. If no packets are shown the sender has not sent any weather packets the latest 10 day(s).
| Time | Temp. | Humidity | Pressure | Rain* | Wind** | Luminosity | Snow |
|---|---|---|---|---|---|---|---|
| 1788370220 | 24.44° C | 36% | 1017.8 hPa | 0 mm | - | - | - |
| 1788369920 | 23.89° C | 36% | 1017.8 hPa | 0 mm | - | - | - |
| 1788369620 | 23.89° C | 37% | 1018 hPa | 0 mm | - | - | - |
| 1788369328 | 23.89° C | 35% | 1018.1 hPa | 0 mm | - | - | - |
| 1788369020 | 23.89° C | 36% | 1018 hPa | 0 mm | - | - | - |
| 1788368720 | 23.89° C | 37% | 1018 hPa | 0 mm | - | - | - |
| 1788368420 | 23.33° C | 36% | 1018.2 hPa | 0 mm | - | - | - |
| 1788368120 | 23.89° C | 34% | 1018.2 hPa | 0 mm | - | - | - |
| 1788367820 | 23.89° C | 37% | 1018.1 hPa | 0 mm | - | - | - |
| 1788367520 | 23.89° C | 35% | 1018.1 hPa | 0 mm | - | - | - |
| 1788367220 | 23.89° C | 36% | 1018.2 hPa | 0 mm | - | - | - |
| 1788366920 | 23.33° C | 37% | 1018 hPa | 0 mm | - | - | - |
| 1788366620 | 23.33° C | 37% | 1018 hPa | 0 mm | - | - | - |
| 1788366320 | 23.33° C | 37% | 1018.2 hPa | 0 mm | - | - | - |
| 1788366020 | 22.78° C | 38% | 1018.1 hPa | 0 mm | - | - | - |
| 1788365720 | 22.78° C | 39% | 1018 hPa | 0 mm | - | - | - |
| 1788365420 | 22.78° C | 40% | 1018 hPa | 0 mm | - | - | - |
| 1788365120 | 22.78° C | 39% | 1018 hPa | 0 mm | - | - | - |
| 1788364820 | 22.22° C | 41% | 1018.1 hPa | 0 mm | - | - | - |
| 1788364520 | 22.22° C | 44% | 1017.9 hPa | 0 mm | - | - | - |
| 1788364220 | 22.22° C | 45% | 1017.9 hPa | 0 mm | - | - | - |
| 1788363920 | 21.67° C | 45% | 1018 hPa | 0 mm | - | - | - |
| 1788363620 | 21.67° C | 44% | 1018 hPa | 0 mm | - | - | - |
| 1788363320 | 22.22° C | 42% | 1018.2 hPa | 0 mm | - | - | - |
| 1788363020 | 22.22° C | 42% | 1018.1 hPa | 0 mm | - | - | - |
* Rain latest hour (hover to see other rain measurements)
** Current wind speed in m/s (hover to see current wind gust speed)